St. Johns, AZ

10:03 AM MST on September 20, 2017 (GMT -0700)
Saint Johns Industrial

Weather History for KSJN - May, 2012

Change the Weather History Date:

Thursday, May 3, 2012

  Actual Average (KLSB) Record (KLSB)
Temperature  
Mean Temperature 56 °F -  
Max Temperature 75 °F 82 °F 86 °F (2014)
Min Temperature 36 °F 42 °F 41 °F (2014)
Degree Days  
Heating Degree Days 10    
Growing Degree Days 6 (Base 50)    
Moisture  
Dew Point 20 °F    
Average Humidity 20    
Maximum Humidity 38    
Minimum Humidity 9    
Precipitation  
Precipitation 0.00 in - - ()
Sea Level Pressure  
Sea Level Pressure 29.87 in    
Wind  
Wind Speed 5 mph (SW)    
Max Wind Speed 21 mph    
Max Gust Speed 32 mph    
Visibility 10 miles    
Events      
Averages and records for this station are not official NWS values.
T = Trace of Precipitation, MM = Missing Value Source: NWS Daily Summary

Daily Weather History Graph

Daily Weather History Graph

Search for Another Location

Airport or City:

Trip Planner

Search our weather history database for the weather conditions in past years. The results will help you decide how hot, cold, wet, or windy it might be!

Date:

Astronomy

May. 03, 2012 Rise Set
Actual Time 5:24 AM MST 7:04 PM MST
Civil Twilight 4:57 AM MST 7:31 PM MST
Nautical Twilight 4:25 AM MST 8:03 PM MST
Astronomical Twilight 3:51 AM MST 8:38 PM MST
Moon 4:37 PM MST (5/3) 3:24 AM MST (5/3)
Length of Visible Light 14h 33m
Length of Day
13h 39m
Waxing Gibbous, 92% of the Moon is Illuminated
May 3
Waxing Gibbous
May 5
Full
May 12
Last Quarter
May 20
New
May 28
First Quarter

Hourly Weather History & Observations

Time (MST) Temp. Windchill Dew Point Humidity Pressure Visibility Wind Dir Wind Speed Gust Speed Precip Events Conditions
12:54 AM 52.0 °F - 15.1 °F 23% 29.83 in 9.0 mi Calm Calm - N/A   Clear
1:54 AM 48.0 °F - 16.0 °F 28% 29.83 in 10.0 mi SE 3.5 mph - N/A   Clear
2:54 AM 48.0 °F - 14.0 °F 26% 29.83 in 10.0 mi Calm Calm - N/A   Clear
3:54 AM 42.1 °F - 15.1 °F 34% 29.88 in 10.0 mi Calm Calm - N/A   Clear
4:54 AM 42.1 °F 40.2 °F 18.0 °F 38% 29.88 in 10.0 mi South 3.5 mph - N/A   Clear
5:54 AM 41.0 °F - 16.0 °F 36% 29.92 in 10.0 mi Calm Calm - N/A   Clear
6:54 AM 51.1 °F - 19.9 °F 29% 29.91 in 10.0 mi Calm Calm - N/A   Clear
7:54 AM 57.9 °F - 21.0 °F 24% 29.92 in 10.0 mi East 3.5 mph - N/A   Clear
8:54 AM 64.0 °F - 26.1 °F 24% 29.91 in 10.0 mi Variable 3.5 mph - N/A   Clear
9:54 AM 68.0 °F - 25.0 °F 20% 29.89 in 10.0 mi ESE 8.1 mph - N/A   Clear
10:54 AM 72.0 °F - 23.0 °F 16% 29.87 in 10.0 mi SSE 5.8 mph - N/A   Clear
11:54 AM 73.9 °F - 19.0 °F 13% 29.84 in 10.0 mi Calm Calm - N/A   Clear
12:54 PM 75.9 °F - 19.9 °F 12% 29.82 in 10.0 mi Variable 3.5 mph - N/A   Clear
1:54 PM 79.0 °F - 16.0 °F 9% 29.80 in 10.0 mi WSW 11.5 mph 23.0 mph N/A   Clear
2:54 PM 81.0 °F - 18.0 °F 10% 29.78 in 10.0 mi WSW 19.6 mph 32.2 mph N/A   Clear
3:54 PM 80.1 °F - 17.1 °F 9% 29.80 in 10.0 mi West 17.3 mph 26.5 mph N/A   Clear
4:54 PM 77.0 °F - 19.9 °F 12% 29.81 in 10.0 mi SW 20.7 mph 29.9 mph N/A   Clear
5:54 PM 75.0 °F - 23.0 °F 14% 29.84 in 10.0 mi WSW 16.1 mph 25.3 mph N/A   Clear
6:54 PM 70.0 °F - 21.0 °F 16% 29.84 in 10.0 mi WSW 13.8 mph 24.2 mph N/A   Clear
7:54 PM 66.0 °F - 19.9 °F 17% 29.86 in 10.0 mi Calm Calm - N/A   Clear
8:54 PM 64.0 °F - 18.0 °F 17% 29.87 in 10.0 mi SW 8.1 mph - N/A   Clear
9:54 PM 59.0 °F - 17.1 °F 20% 29.88 in 10.0 mi WSW 6.9 mph - N/A   Clear
10:54 PM 59.0 °F - 17.1 °F 20% 29.87 in 10.0 mi SSW 4.6 mph - N/A   Clear
11:54 PM 57.0 °F - 18.0 °F 22% 29.88 in 10.0 mi West 4.6 mph - N/A   Clear